Regional Weather Roundup
Issued by NWS

Home | Current Version | Previous Version | Text Only | Print | Product List | Glossary On
Versions: 1 2 3 4 5 6 7 8 9 10 11 12 13 14 15 16 17 18 19 20 21 22 23 24 25 26 27 28 29 30 31 32 33 34 35 36 37 38 39 40 41 42 43 44 45 46 47 48 49 50
000
ASUS43 KFSD 251810
RWRSD

WEATHER ROUNDUP FOR SOUTH DAKOTA
NATIONAL WEATHER SERVICE SIOUX FALLS SD
100 PM CDT FRI JUL 25 2014

NOTE: "FAIR" INDICATES FEW OR NO CLOUDS BELOW 12,000 FEET WITH NO
SIGNIFICANT WEATHER AND/OR OBSTRUCTIONS TO VISIBILITY.


SDZ001>005-009-010-012>017-251900-
NORTHWEST AND NORTH CENTRAL SOUTH DAKOTA

CITY           SKY/WX    TMP DP  RH WIND       PRES   REMARKS
BUFFALO          N/A     75  41  29 W6        29.89F
FAITH            N/A     79  44  28 N14       29.92F
MOBRIDGE       SUNNY     80  45  28 N15G24    29.84R
$$

SDZ012>016-024>037-041>051-057-063-072>074-251900-
SOUTHWEST AND SOUTH CENTRAL SOUTH DAKOTA

CITY           SKY/WX    TMP DP  RH WIND       PRES   REMARKS
RAPID CTY ARPT SUNNY     76  43  30 VRB6      29.98F
PIERRE         SUNNY     84  60  44 N17G23    29.84S
CUSTER         SUNNY     73  51  46 VRB7      30.09F
ELLSWORTH AFB  SUNNY     75  41  29 VRB5      29.98F
PHILIP         SUNNY     83  42  23 N12G23    29.91F
PINE RIDGE     SUNNY     78  46  32 N9        30.00F
WINNER         FAIR      88  67  49 NW14G22   29.84S
$$

SDZ004>011-016>023-039-040-251900-
NORTHEAST SOUTH DAKOTA

CITY           SKY/WX    TMP DP  RH WIND       PRES   REMARKS
ABERDEEN       CLOUDY    71  67  87 NE12      29.81R
WATERTOWN      CLOUDY    77  67  71 W10       29.78S
SISSETON         N/A     77  69  76 NW7       29.76S
$$

SDZ017-020-022-023-036>040-048>070-251900-
SOUTHEAST SOUTH DAKOTA

CITY           SKY/WX    TMP DP  RH WIND       PRES   REMARKS
SIOUX FALLS    MOSUNNY   79  69  71 SE6       29.79S
HURON          PTSUNNY   80  68  66 N13G21    29.77S
CHAMBERLAIN    SUNNY     85  67  55 N16       29.81S
MITCHELL       SUNNY     85  70  60 VRB5      29.77S
YANKTON        SUNNY     81  72  74 SE7       29.76F
$$

ABBREVIATIONS USED IN REMARKS
   TC - TEMPERATURE IN CELSIUS
  WCI - WIND CHILL INDEX
   HX - HEAT INDEX
  VSB - VISIBILITY



USA.gov is the U.S. government's official web portal to all federal, state and local government web resources and services.